Regional Weather Roundup
Issued by NWS

Home | Current Version | Previous Version | Graphics & Text | Print | Product List | Glossary On
Versions: 1 2 3 4 5 6 7 8 9 10 11 12 13 14 15 16 17 18 19 20 21 22 23 24 25 26 27
000
ASUS45 KCYS 242210
RWRWY

WYOMING REGIONAL WEATHER ROUNDUP
NATIONAL WEATHER SERVICE CHEYENNE WY
300 PM MST SAT FEB 24 2018

NOTE:  "FAIR" INDICATES FEW OR NO CLOUDS BELOW 12,000 FEET
WITH NO SIGNIFICANT WEATHER AND/OR OBSTRUCTIONS TO VISIBILITY.

WYZ001-242300-
YELLOWSTONE NATIONAL PARK

CITY           SKY/WX    TMP DP  RH WIND       PRES   REMARKS
LK YELLOWSTONE   N/A     12   3  67 VRB6      29.71F WCI   3
W YELLOWSTONE  NOT AVBL

$$
WYZ002>013-054>058-071-098>099-242300-
NORTHERN WYOMING

CITY           SKY/WX    TMP DP  RH WIND       PRES   REMARKS
JACKSON        CLOUDY    18   9  68 S16       29.78F WCI   3
CODY           FAIR      30   5  34 W25G35    29.68F WCI  16
GREYBULL       FAIR      20  11  68 N6        29.75F WCI  12
WORLAND        FAIR      27  10  49 SE13      29.73S WCI  16
SHERIDAN       FAIR      28   8  43 SW5       29.68S WCI  23
BUFFALO        FAIR      25   5  42 S8        29.65F WCI  16
GILLETTE       FAIR      25  11  55 SW9       29.68S WCI  15
HULETT         FAIR      27  10  50 MISG      29.68S
NEWCASTLE      FAIR      27  10  50 NW5       29.72S WCI  21

$$
WYZ014>020-022>026-101>103-242300-
CENTRAL WYOMING

CITY           SKY/WX    TMP DP  RH WIND       PRES   REMARKS
BIG PINEY      CLOUDY    20   3  48 VRB3      29.79F
PINEDALE       CLOUDY    18   3  53 NW3       29.79F
DUBOIS           N/A    N/A N/A N/A MISG        N/A
LANDER         FAIR      27   8  44 SE7       29.71F WCI  19
RIVERTON       FAIR      28   4  35 NW16      29.71S WCI  16
CASPER         FAIR      23  11  60 SW23      29.72S WCI   7
DOUGLAS        FAIR      25  11  55 W20       29.71S WCI  11

$$
WYZ021-027>030-104>119-242300-
SOUTHERN WYOMING

CITY           SKY/WX    TMP DP  RH WIND       PRES   REMARKS
EVANSTON       PTSUNNY   18   9  68 SW16      29.83F WCI   3
FORT BRIDGER   CLOUDY    19   9  65 SW17G24   29.86F WCI   4
ROCK SPRINGS   CLOUDY    17   6  62 W16       29.84F WCI   2
DIXON          MOCLDY    20   6  54 SW22G28   29.89F WCI   4
RAWLINS        PTSUNNY   17   8  67 W23G37    29.76F WCI  -1
SARATOGA       FAIR      19   9  63 SW25G31   29.80S WCI   2
LARAMIE        CLOUDY    16   5  62 W29G37    29.71R WCI  -4
CHEYENNE       FAIR      25   2  37 W24G37    29.73R WCI   9
TORRINGTON     FAIR      31  11  43 W22G32    29.74S WCI  18
PINE BLUFFS    FAIR      28   9  43 MISG      29.76R

$$




USA.gov is the U.S. government's official web portal to all federal, state and local government web resources and services.